This demonstration page uses our WeatherBlox Daily Observations layout. Learn more.

41.55636, -103.73856

Hourly Observations for July 30, 2019

Temp ( °F °C ) Dew Point ( °F °C ) Humidity (%) Winds ( mph kmh ) Pressure ( in mb ) Visibility ( mi km ) Precip ( " mm )
12:58 am 00:58 Clear 76 24.7 58 14.4 53 53 SSE 18 30 29.95 1014 10 16.0934 0 0
1:58 am 01:58 Clear 73 22.7 54 12 51 51 SSE 14 22 29.97 1015 10 16.0934 0 0
2:58 am 02:58 Clear 69 20.8 56 13.1 62 62 SSE 14 22 29.99 1016 10 16.0934 0 0
3:58 am 03:58 Clear 66 18.8 56 13.4 71 71 S 12 19 30.01 1016 10 16.0934 0 0
4:58 am 04:58 Mostly Clear 63 17.1 56 13.1 77 77 SSE 12 19 30.01 1016 10 16.0934 0 0
5:58 am 05:58 Clear 63 17.3 56 13.1 77 77 S 14 22 30.01 1016 10 16.0934 0 0
6:58 am 06:58 Clear 62 16.8 55 12.9 78 78 S 16 26 29.99 1016 10 16.0934 0 0
7:58 am 07:58 Clear 60 15.4 55 12.6 84 84 Calm 30 1016 10 16.0934 0 0
8:58 am 08:58 Mostly Cloudy 59 15 55 12.7 86 86 S 9 15 29.95 1014 10 16.0934 0 0
9:58 am 09:58 Mostly Cloudy 58 14.2 54 12.4 89 89 S 13 20 29.93 1014 10 16.0934 0 0
10:58 am 10:58 Mostly Cloudy 59 14.8 55 12.6 87 87 SSW 14 22 29.91 1013 10 16.0934 0 0
11:58 am 11:58 Mostly Cloudy 59 14.9 54 12.3 85 85 SSW 16 26 29.91 1013 10 16.0934 0 0
1:58 pm 13:58 Mostly Sunny 67 19.7 55 13 65 65 WNW 9 15 29.96 1015 10 16.0934 0 0
2:58 pm 14:58 Sunny 71 21.5 58 14.4 64 64 NW 16 26 29.98 1015 10 16.0934 0 0
3:58 pm 15:58 Partly Cloudy 73 23 55 12.5 52 52 NNW 13 20 29.96 1015 10 16.0934 0 0
4:58 pm 16:58 Sunny 76 24.2 55 13 50 50 N 7 11 29.94 1014 10 16.0934 0 0
7:58 pm 19:58 Sunny 86 29.8 52 11.2 32 32 SE 7 11 29.92 1013 10 16.0934 0 0
8:58 pm 20:58 Sunny 88 30.9 51 10.6 29 29 S 10 17 29.91 1013 10 16.0934 0 0
9:59 pm 21:59 Sunny 88 30.9 48 8.8 25 25 SSE 12 19 29.89 1012 10 16.0934 0 0
10:56 pm 22:56 Sunny 88 30.9 51 10.5 28 28 SSE 10 17 29.88 1012 10 16.0934 0 0
11:58 pm 23:58 Sunny 85 29.7 53 11.4 32 32 SE 14 22 29.86 1011 10 16.0934 0 0

Powered by AerisWeather